Weather History for KN60 - January, 2013

Change the Weather History Date:

Monday, January 7, 2013

  Actual Average Record
Temperature  
Mean Temperature 21 °F -  
Max Temperature 30 °F 15 °F 7 °F (2015)
Min Temperature 10 °F 0 °F -15 °F (2015)
Degree Days  
Heating Degree Days 44    
Moisture  
Dew Point 16 °F    
Average Humidity 79    
Maximum Humidity 92    
Minimum Humidity 69    
Precipitation  
Precipitation 0.00 in - - ()
Sea Level Pressure  
Sea Level Pressure 29.86 in    
Wind  
Wind Speed 11 mph (WSW)    
Max Wind Speed 21 mph    
Max Gust Speed -    
Averages and records for this station are not official NWS values.
T = Trace of Precipitation, MM = Missing Value Source: NWS Daily Summary

Daily Weather History Graph

Daily Weather History Graph

Search for Another Location

Airport or City:

Trip Planner

Search our weather history database for the weather conditions in past years. The results will help you decide how hot, cold, wet, or windy it might be!

Date:

Astronomy

Jan. 07, 2013 Rise Set
Actual Time 8:33 AM CST 5:11 PM CST
Civil Twilight 7:57 AM CST 5:47 PM CST
Nautical Twilight 7:18 AM CST 6:25 PM CST
Astronomical Twilight 6:41 AM CST 7:03 PM CST
Moon 3:54 AM CST (1/7) 1:27 PM CST (1/7)
Length of Visible Light 9h 49m
Length of Day
8h 38m
Waning Crescent, 22% of the Moon is Illuminated
Jan 7
Waning Crescent
Jan 11
New
Jan 18
First Quarter
Jan 26
Full
Feb 3
Last Quarter

Hourly Weather History & Observations

Time (CST) Temp. Windchill Dew Point Humidity Pressure Visibility Wind Dir Wind Speed Gust Speed Precip Events Conditions
12:52 AM 25.0 °F 14.2 °F 19.0 °F 78% 29.79 in - WSW 11.5 mph - N/A   Unknown
1:52 AM 25.0 °F 13.6 °F 18.0 °F 75% 29.78 in - West 12.7 mph - N/A   Unknown
2:52 AM 30.0 °F 17.2 °F 21.0 °F 69% 29.80 in - West 20.7 mph - N/A   Unknown
3:52 AM 26.1 °F 14.5 °F 19.0 °F 75% 29.82 in - West 13.8 mph - N/A   Unknown
4:52 AM 24.1 °F 12.5 °F 17.1 °F 75% 29.82 in - West 12.7 mph - N/A   Unknown
5:52 AM 21.9 °F 10.4 °F 17.1 °F 82% 29.83 in - West 11.5 mph - N/A   Unknown
6:52 AM 21.0 °F 9.9 °F 16.0 °F 81% 29.83 in - West 10.4 mph - N/A   Unknown
7:52 AM 19.9 °F 7.3 °F 15.1 °F 81% 29.85 in - WSW 12.7 mph - N/A   Unknown
8:52 AM 19.9 °F 8.6 °F 14.0 °F 78% 29.86 in - WSW 10.4 mph - N/A   Unknown
9:52 AM 23.0 °F 11.7 °F 15.1 °F 72% 29.89 in - West 11.5 mph - N/A   Unknown
10:52 AM 25.0 °F 13.1 °F 17.1 °F 72% 29.89 in - West 13.8 mph - N/A   Unknown
11:52 AM 27.0 °F 16.1 °F 19.0 °F 72% 29.88 in - West 12.7 mph - N/A   Unknown
12:52 PM 27.0 °F 17.3 °F 19.0 °F 72% 29.87 in - West 10.4 mph - N/A   Unknown
1:52 PM 28.9 °F 19.8 °F 19.9 °F 69% 29.88 in - West 10.4 mph - N/A   Unknown
2:52 PM 28.9 °F 21.1 °F 19.9 °F 69% 29.88 in - West 8.1 mph - N/A   Unknown
3:52 PM 26.1 °F 21.9 °F 19.0 °F 75% 29.89 in - West 3.5 mph - N/A   Unknown
4:52 PM 21.0 °F 13.4 °F 14.0 °F 74% 29.90 in - WSW 5.8 mph - N/A   Unknown
5:52 PM 17.1 °F 10.0 °F 14.0 °F 88% 29.91 in - SW 4.6 mph - N/A   Unknown
6:52 PM 12.9 °F 5.2 °F 10.0 °F 88% 29.91 in - SW 4.6 mph - N/A   Unknown
7:52 PM 12.9 °F 5.2 °F 10.0 °F 88% 29.91 in - South 4.6 mph - N/A   Unknown
8:52 PM 12.0 °F - 10.0 °F 92% 29.89 in - Calm Calm - N/A   Unknown
9:52 PM 14.0 °F - 10.0 °F 84% 29.86 in - Calm Calm - N/A   Unknown
10:52 PM 12.9 °F - 10.9 °F 92% 29.84 in - Calm Calm - N/A   Unknown
11:52 PM 10.9 °F 4.7 °F 9.0 °F 92% 29.83 in - South 3.5 mph - N/A   Unknown